Hourly Data Report for December 30, 2020

CARBERRY CS
MANITOBA
Current Station Operator: ECCC - MSC

49°54'20.900" N
99°21'26.800" W
383.50 m
5010547
71170
WZE

Download Data

Hourly Data (December 2020)
Hourly Data Report for December 30, 2020
TIME
LST
Temp Definition
°C
Dew Point Definition
°C
Rel Hum Definition
%
Precip. Amount Definition
mm

Wind Dir Definition
10's deg

Wind Spd Definition
km/h
Visibility Definition
km
Stn Press Definition
kPa
Hmdx Definition


Wind Chill Definition


Weather Definition


00:00 -9.0 -10.6 88 0.2 34 16   96.62   -16 LegendNANA
01:00 -8.7 -9.9 91 0.0 34 19   96.66   -16 LegendNANA
02:00 -9.3 -10.5 91 0.0 36 20   96.68   -17 LegendNANA
03:00 -10.0 -11.4 90 0.0 36 18   96.76   -17 LegendNANA
04:00 -10.9 -12.3 89 0.0 33 11   96.80   -17 LegendNANA
05:00 -13.4 -14.3 93 0.0 33 2   96.83   -15 LegendNANA
06:00 -13.8 -14.6 93 0.0 23 5   96.85   -17 LegendNANA
07:00 -15.2 -16.6 89 0.0 24 7   96.86   -20 LegendNANA
08:00 -14.6 -16.1 88 0.0 25 8   96.87   -20 LegendNANA
09:00 -14.1 -15.6 88 0.0 27 13   96.85   -21 LegendNANA
10:00 -11.7 -12.8 91 0.0 27 16   96.88   -19 LegendNANA
11:00 -9.9 -10.9 92 0.0 26 27   96.89   -19 LegendNANA
12:00 -9.4 -10.3 93 0.0 26 21   96.82   -17 LegendNANA
13:00 -9.1 -10.0 93 0.0 26 21   96.74   -17 LegendNANA
14:00 -9.2 -10.1 94 0.0 25 20   96.73   -17 LegendNANA
15:00 -8.9 -9.8 94 0.0 24 14   96.73   -15 LegendNANA
16:00 -8.4 -9.1 95 0.0 23 12   96.68   -14 LegendNANA
17:00 -7.9 -8.9 93 0.0 22 11   96.62   -13 LegendNANA
18:00 -7.7 -9.3 88 0.0 23 14   96.60   -14 LegendNANA
19:00 -7.3 -10.1 81 0.0 24 20   96.55   -14 LegendNANA
20:00 -8.4 -10.8 83 0.0 23 12   96.52   -14 LegendNANA
21:00 -9.5 -11.8 83 0.0 23 11   96.44   -15 LegendNANA
22:00 -10.2 -12.1 86 0.0 22 8   96.40   -15 LegendNANA
23:00 -11.0 -12.4 89 0.0 19 7   96.40   -15 LegendNANA

Notes on Data Quality.

Legend

  • E = Estimated
  • M = Missing
  • NA = Not Available*
  • [empty] = Indicates an unobserved value
Date modified: